User: anonymous   Login
Location: Unspecified
(0.0000°N, 0.0000°E)
Time: 17:23:04
(UTC+00:00)
Language:

OPTUS D3 - Orbit

View from above orbital plane
View from above orbital plane
View from above satellite
View from above satellite

Ground track
Ground track

The orbit data is extracted from the following two-line orbital elements,

1 35756U 09044B   14351.75469858 -.00000134  00000-0  00000+0 0  2439
2 35756 000.0409 003.4308 0003537 278.8389 231.7528 01.00272958 19521
Epoch (UTC): 17 December 2014 18:06:45
Eccentricity: 0.0003537
inclination: 0.0409°
perigee height: 35771 km
apogee height: 35801 km
right ascension of ascending node: 3.4308°
argument of perigee: 278.8389°
revolutions per day: 1.00272958
mean anomaly at epoch: 231.7528°
orbit number at epoch: 1952

The dashed part of the orbit path shows where the satellite is in the earth's shadow,  

DLR